#timestamp,LO_Frequency,Hit 
1501660815.5,286047008.4,N
1501660835.3,286047008.2,N
1501660855.1,286047009.7,N
1501660875.9,286047011.4,N
1501660895.7,286047015.6,N
1501660915.5,286047013.0,N
1501660935.4,286047012.8,N
1501660955.2,286047011.1,N
1501660975.0,286047013.6,N
1501660975.9,286047013.6,N
1501660995.8,286047013.7,N
1501661015.6,286047009.3,N
1501661035.4,286047010.5,N
1501661055.3,286047008.2,N
1501661075.1,286047006.1,N
1501661076.0,286047006.1,N
1501661095.8,286047007.4,N
1501661115.6,286047004.6,N
1501661135.5,286047006.3,N
1501661155.3,286047007.2,N
1501661175.1,286047008.8,N
1501661195.9,286047007.6,N
1501661215.7,286047004.8,N
1501661235.5,286047004.7,N
1501661255.4,286047005.0,N
1501661275.2,286047005.8,N
1501661295.0,286047005.3,N
1501661295.9,286047005.3,N
1501661315.8,286047004.6,N
1501661335.6,286047004.8,N
1501661355.4,286047005.1,N
1501661375.2,286047004.9,N
1501661395.1,286047005.4,N
1501661396.0,286047005.4,N
1501661415.8,286047007.0,N
1501661435.6,286047004.8,N
1501661455.5,286047005.7,N
1501661475.3,286047002.9,N
1501661495.1,286047003.7,N
1501661515.9,286047002.4,N
1501661535.7,286047001.8,N
1501661555.5,286047002.1,N
1501661575.3,286047001.9,N
1501661595.2,286047003.8,N
1501661615.0,286047003.2,N
1501661615.9,286047003.2,N
1501661635.7,286047006.8,N
1501661655.6,286047005.0,N
1501661675.4,286047005.2,N
1501661695.2,286047005.8,N
1501661715.1,286047005.2,N
1501661716.0,286047005.2,N
1501661735.8,286047005.1,N
1501661755.6,286047002.9,N
1501661775.5,286047003.5,N
1501661795.3,286047003.1,N
1501661815.1,286047001.8,N
1501661835.9,286047003.9,N
1501661855.7,286047003.6,N
1501661875.5,286047002.1,N
1501661895.3,286047000.2,N
1501661915.2,286047002.7,N
1501661935.0,286047002.7,N
1501661935.9,286047002.7,N
1501661955.7,286047001.2,N
1501661975.6,286047000.2,N
1501661995.4,286047004.2,N
1501662015.2,286047001.8,N
1501662035.1,286047002.1,N
1501662036.0,286047002.1,N
1501662055.8,286047002.6,N
1501662075.6,286046999.8,N
1501662095.5,286047002.8,N
1501662115.3,286047000.1,N
1501662135.1,286047001.0,N
1501662155.8,286047000.4,N
1501662175.7,286046999.0,N
1501662195.5,286046996.8,N
1501662215.3,286046997.0,N
1501662235.2,286046996.9,N
1501662255.9,286046998.7,N
1501662275.7,286046998.3,N
1501662295.6,286046998.5,N
1501662315.4,286046998.4,N
1501662335.2,286047001.5,N
1501662355.1,286047003.5,N
1501662356.0,286047003.5,N
1501662375.8,286047003.9,N
1501662395.6,286047002.3,N
1501662415.4,286047004.4,N
1501662435.3,286047002.2,N
1501662455.1,286047000.3,N
1501662475.8,286047000.8,N
1501662495.7,286047000.9,N
1501662515.5,286047000.8,N
1501662535.3,286047000.8,N
1501662555.2,286046998.7,N
1501662575.9,286047000.7,N
1501662595.7,286047001.6,N
1501662615.6,286047002.0,N
1501662635.4,286047002.5,N
1501662655.2,286047000.1,N
1501662675.0,286047000.0,N
1501662676.0,286047000.0,N
1501662695.8,286047000.1,N
1501662715.6,286047000.2,N
1501662735.4,286047000.7,N
1501662755.3,286046998.5,N
1501662775.1,286046999.4,N
1501662795.8,286046998.1,N
1501662815.7,286047002.4,N
1501662835.5,286047002.4,N
1501662855.3,286047000.1,N
1501662875.2,286046999.1,N
1501662895.9,286046994.9,N
1501662915.7,286046999.2,N
1501662935.6,286047001.1,N
1501662955.4,286046999.5,N
1501662975.2,286046997.4,N
1501662995.0,286046996.7,N
1501662996.0,286046996.7,N
1501663015.8,286046997.7,N
1501663035.6,286046997.5,N
1501663055.4,286046997.4,N
1501663075.3,286046999.2,N
1501663095.1,286046997.1,N
1501663115.8,286046995.8,N
1501663135.7,286046997.8,N
1501663155.5,286047000.7,N
1501663175.3,286047001.1,N
1501663195.2,286046999.9,N
1501663215.9,286047001.0,N
1501663235.7,286046999.3,N
1501663255.6,286046999.1,N
1501663275.4,286046997.2,N
1501663295.2,286046997.9,N
1501663315.0,286046999.6,N
1501663316.0,286046999.6,N
1501663335.8,286046998.2,N
1501663355.6,286046998.9,N
1501663375.4,286046995.4,N
1501663395.3,286046998.0,N
1501663415.1,286046997.9,N
1501663435.8,286046996.3,N
1501663455.7,286046993.6,N
1501663475.5,286046994.4,N
1501663495.3,286046992.9,N
1501663515.2,286046992.7,N
1501663535.9,286046992.2,N
1501663555.7,286046993.4,N
1501663575.6,286046993.4,N
1501663595.4,286046996.4,N
1501663615.2,286046993.9,N
1501663635.0,286046994.2,N
1501663635.9,286046994.2,N
1501663655.8,286046993.8,N
1501663675.6,286046993.3,N
1501663695.4,286046995.7,N
1501663715.3,286046993.5,N
1501663735.1,286046994.1,N
1501663755.8,286046992.2,N
1501663775.7,286046991.8,N
1501663795.5,286046990.2,N
1501663815.3,286046990.5,N
1501663835.2,286046992.5,N
1501663855.9,286046992.8,N
1501663875.7,286046988.9,N
1501663895.6,286046991.1,N
1501663915.4,286046991.5,N
1501663935.2,286046992.9,N
1501663955.1,286046993.0,N
1501663956.0,286046993.0,N
1501663975.8,286046991.4,N
1501663995.6,286046990.6,N
1501664015.4,286046990.8,N
1501664035.3,286046991.6,N
1501664055.1,286046989.6,N
1501664075.8,286046991.2,N
1501664095.7,286046990.9,N
1501664115.5,286046992.6,N
1501664135.3,286046993.0,N
1501664155.2,286046992.6,N
1501664175.9,286046990.7,N
1501664195.7,286046990.7,N
1501664215.6,286046991.3,N
1501664235.4,286046991.0,N
1501664255.2,286046989.1,N
1501664275.0,286046991.4,N
1501664276.0,286046991.4,N
1501664295.8,286046988.6,N
1501664315.6,286046989.5,N
1501664335.4,286046989.5,N
1501664355.3,286046991.3,N
1501664375.1,286046987.5,N
1501664395.8,286046987.2,N
